Current weather by "City, St" or "zip code"  
 

Current Conditions: Brookings, Brookings Airport, OR

A Few Clouds


60.0 F

Last Updated on Oct 24 2020, 10:56 am PDT
Humidity: 75%
Wind Speed: N 0.0 mph
Barometer 30.05 in
Dewpoint: 52.0 F
Visibility: 10.00 mi
Precip: --
Heat Index: NA
Wind Chill: NA
Current conditions at:

Brookings, Brookings Airport, OR (KBOK)

Lat: 42.07444 Lon: 124.29

Local Radar Image active severe weather and emergency alerts image image weather storm and storm spotter reports image weather observation monitoring service image
Local
Radar
Active
Alerts
Storm Reports Obs
Monitoring

Sign-up For Email & Text Message Weather Alert Notification Services



Advertise Here

Observation History for Brookings, Brookings Airport, OR


Time Wind
(mph)
Vis
(mi)
Weather Precip (in) Temperature (F) Relative
Humidity
Wind
Chill
(F)
Heat
Index
(F)
Pressure
Air Dwpt altimeter
(in)
sea level
(mb)
Rmks
10:56 am PDT N 0.0 10.00 A Few Clouds -- 60.0 52.0 75% NA NA 30.05 1017.5
9:56 am PDT N 0.0 10.00 A Few Clouds -- 57.0 54.0 90% NA NA 30.05 1017.6
8:56 am PDT N 0.0 10.00 Overcast -- 53.0 53.1 100% NA NA 30.05 1017.5
7:56 am PDT N 0.0 10.00 Mostly Cloudy -- 51.0 51.1 100% NA NA 30.04 1017.4
6:56 am PDT N 0.0 10.00 Overcast -- 53.0 52.0 96% NA NA 30.04 1017.3
5:56 am PDT N 0.0 10.00 Partly Cloudy -- 54.0 53.1 97% NA NA 30.04 1017.3
4:56 am PDT N 0.0 4.00 Fog/Mist -- 54.0 54.0 100% NA NA 30.04 1017.4
3:56 am PDT N 0.0 2.00 Fog/Mist -- 53.0 53.1 100% NA NA 30.05 1017.5
2:56 am PDT N 0.0 10.00 Overcast -- 54.0 53.1 97% NA NA 30.05 1017.5
1:56 am PDT N 0.0 8.00 Overcast -- 56.0 55.0 97% NA NA 30.05 1017.6
12:56 am PDT N 0.0 10.00 Mostly Cloudy -- 55.0 54.0 96% NA NA 30.06 1017.7
11:56 pm PDT N 0.0 10.00 Partly Cloudy -- 57.0 55.0 93% NA NA 30.07 1018.0
10:56 pm PDT NW 3.5 10.00 Fair -- 60.0 57.0 90% NA NA 30.07 1018.0
9:56 pm PDT NW 5.8 10.00 A Few Clouds -- 61.0 55.0 81% 61 NA 30.06 1017.7
8:56 pm PDT NW 6.9 10.00 Mostly Cloudy -- 61.0 53.1 75% 60 NA 30.05 1017.4
7:56 pm PDT NW 5.8 10.00 Fair -- 61.0 50.0 67% 61 NA 30.04 1017.3
6:56 pm PDT NW 6.9 10.00 Fair -- 62.0 48.9 62% 62 NA 30.03 1017.0
5:56 pm PDT NW 6.9 10.00 Fair -- 64.0 48.9 58% NA NA 30.03 1016.7
4:56 pm PDT NW 13.8 10.00 Fair -- 66.0 48.0 52% NA NA 30.03 1016.8
3:56 pm PDT NW 11.5 10.00 Fair -- 69.0 44.1 41% NA NA 30.03 1016.6
2:56 pm PDT NW 9.2 10.00 Fair -- 71.0 37.0 29% NA NA 30.03 1016.5
1:56 pm PDT NW 10.4 10.00 Fair -- 72.0 37.9 29% NA NA 30.03 1016.8
12:56 pm PDT NW 6.9 10.00 Fair -- 72.0 33.1 24% NA NA 30.05 1017.2
11:56 am PDT W 5.8 10.00 Fair -- 70.0 34.0 27% NA NA 30.05 1017.5

Regional Weather Observation


Crescent City, Jack McNamara Field Airport, CA (KCEC)

Fog/Mist
54.0 F

Sexton Summit, OR (KSXT)

Fog
44.0 F

Southwest Oregon Regional Airport, OR (KOTH)

Overcast
56.0 F

Rogue Valley International Airport, OR (KMFR)

Overcast
57.0 F

Roseburg Regional Airport, OR (KRBG)

Overcast
55.0 F

Arcata / Eureka, Arcata Airport, CA (KACV)

Overcast
55.0 F